,,Stat6,,Stat2,,Stat8,,Stat9,,Stat10,,Wind1,,Wind1,
time,status,PA1M_AVG,status,PR1M_SUM,status,RH1M_AVG,status,SR1M_AVG,status,TA1M_AVG,status,W1dAve1m,status,W1sAve1m,
2008-07-15, 00:00:00,VALID,918.155,VALID,0,VALID,100,VALID,-0.0509425,VALID,18.2004,VALID,181,VALID,0.61447,
2008-07-15, 00:01:00,VALID,918.123,VALID,0,VALID,100,VALID,-0.0509425,VALID,18.1974,VALID,178,VALID,0.844993,
2008-07-15, 00:02:00,VALID,918.107,VALID,0,VALID,100,VALID,-0.0849042,VALID,18.1942,VALID,173,VALID,0.895833,
2008-07-15, 00:03:00,VALID,918.107,VALID,0,VALID,100,VALID,-0.0339617,VALID,18.1907,VALID,177,VALID,0.849927,
2008-07-15, 00:04:00,VALID,918.105,VALID,0,VALID,100,VALID,-0.0679233,VALID,18.2074,VALID,158,VALID,0.843568,
2008-07-15, 00:05:00,VALID,918.124,VALID,0,VALID,100,VALID,-0.0509425,VALID,18.2069,VALID,137,VALID,0.305273,
2008-07-15, 00:06:00,VALID,918.13,VALID,0.2,VALID,100,VALID,-0.101885,VALID,18.1974,VALID,138,VALID,0.773611,
2008-07-15, 00:07:00,VALID,918.135,VALID,0,VALID,100,VALID,-0.0679233,VALID,18.1844,VALID,135,VALID,0.551042,
2008-07-15, 00:08:00,VALID,918.134,VALID,0,VALID,100,VALID,-0.0679233,VALID,18.1844,VALID,127,VALID,0.538723,
2008-07-15, 00:09:00,VALID,918.118,VALID,0,VALID,100,VALID,-0.0339617,VALID,18.1814,VALID,133,VALID,0.75651,
2008-07-15, 00:10:00,VALID,918.114,VALID,0,VALID,100,VALID,-0.0849042,VALID,18.1684,VALID,150,VALID,0.884115,
2008-07-15, 00:11:00,VALID,918.105,VALID,0,VALID,100,VALID,-0.0509425,VALID,18.168,VALID,171,VALID,1.04742,
2008-07-15, 00:12:00,VALID,918.089,VALID,0,VALID,100,VALID,-0.0339617,VALID,18.1777,VALID,168,VALID,1.07901,
2008-07-15, 00:13:00,VALID,918.077,VALID,0,VALID,100,VALID,-0.0339617,VALID,18.1812,VALID,165,VALID,1.02126,
2008-07-15, 00:14:00,VALID,918.058,VALID,0,VALID,100,VALID,-0.0339617,VALID,18.1678,VALID,159,VALID,0.895531,
2008-07-15, 00:15:00,VALID,918.064,VALID,0,VALID,100,VALID,-0.0679233,VALID,18.181,VALID,154,VALID,0.838485,
2008-07-15, 00:16:00,VALID,918.062,VALID,0,VALID,100,VALID,-0.0679233,VALID,18.1812,VALID,141,VALID,0.771839,
2008-07-15, 00:17:00,VALID,918.065,VALID,0,VALID,100,VALID,-0.0169808,VALID,18.1844,VALID,154,VALID,0.778409,
2008-07-15, 00:18:00,VALID,918.055,VALID,0,VALID,100,VALID,-0.0339617,VALID,18.1779,VALID,140,VALID,0.0693598,
2008-07-15, 00:19:00,VALID,918.032,VALID,0,VALID,100,VALID,-0.0169808,VALID,18.1715,VALID,148,VALID,0.188033,
2008-07-15, 00:20:00,VALID,918.013,VALID,0,VALID,100,VALID,-0.0339617,VALID,18.1587,VALID,142,VALID,0.560404,
2008-07-15, 00:21:00,VALID,918.003,VALID,0,VALID,100,VALID,-0.0509425,VALID,18.1488,VALID,142,VALID,0.00230824,
2008-07-15, 00:22:00,VALID,917.993,VALID,0,VALID,100,VALID,-0.0509425,VALID,18.1555,VALID,142,VALID,0,
2008-07-15, 00:23:00,VALID,918,VALID,0,VALID,100,VALID,-0.0679233,VALID,18.149,VALID,142,VALID,0,
2008-07-15, 00:24:00,VALID,917.995,VALID,0,VALID,100,VALID,-0.0679233,VALID,18.1263,VALID,142,VALID,0,
2008-07-15, 00:25:00,VALID,918.003,VALID,0,VALID,100,VALID,-0.0679233,VALID,18.123,VALID,139,VALID,0,
2008-07-15, 00:26:00,VALID,918.019,VALID,0,VALID,100,VALID,0,VALID,18.1198,VALID,131,VALID,0.130859,
2008-07-15, 00:27:00,VALID,918.012,VALID,0,VALID,100,VALID,0,VALID,18.1031,VALID,111,VALID,0.424023,
2008-07-15, 00:28:00,VALID,918.037,VALID,0,VALID,100,VALID,-0.0169808,VALID,18.0899,VALID,79,VALID,0.783854,
2008-07-15, 00:29:00,VALID,918.049,VALID,0,VALID,100,VALID,0.0169808,VALID,18.0767,VALID,70,VALID,1.09553,
2008-07-15, 00:30:00,VALID,918.056,VALID,0,VALID,100,VALID,-0.0169808,VALID,18.0607,VALID,69,VALID,1.05923,
2008-07-15, 00:31:00,VALID,918.032,VALID,0,VALID,100,VALID,-0.0169808,VALID,18.0512,VALID,67,VALID,0.922619,
2008-07-15, 00:32:00,VALID,918.023,VALID,0,VALID,100,VALID,-0.0509425,VALID,18.0348,VALID,61,VALID,0.47218,
2008-07-15, 00:33:00,VALID,918.017,VALID,0,VALID,100,VALID,-0.0169808,VALID,18.0251,VALID,62,VALID,0.134766,
2008-07-15, 00:34:00,VALID,918.03,VALID,0,VALID,100,VALID,-0.0169808,VALID,18.0186,VALID,62,VALID,0,
2008-07-15, 00:35:00,VALID,918.023,VALID,0,VALID,100,VALID,-0.0169808,VALID,18.0089,VALID,73,VALID,0,
2008-07-15, 00:36:00,VALID,918.03,VALID,0,VALID,100,VALID,-0.0339617,VALID,18.0221,VALID,80,VALID,0,
2008-07-15, 00:37:00,VALID,918.035,VALID,0,VALID,100,VALID,0,VALID,18.0054,VALID,81,VALID,0,
2008-07-15, 00:38:00,VALID,918.042,VALID,0,VALID,100,VALID,0,VALID,18.0054,VALID,103,VALID,0.788368,
2008-07-15, 00:39:00,VALID,918.033,VALID,0,VALID,100,VALID,0,VALID,17.9855,VALID,108,VALID,0.744673,
2008-07-15, 00:40:00,VALID,918.038,VALID,0,VALID,100,VALID,0,VALID,17.9834,VALID,116,VALID,0.623438,
2008-07-15, 00:41:00,VALID,918.028,VALID,0,VALID,100,VALID,-0.118866,VALID,17.9741,VALID,117,VALID,0.597656,
2008-07-15, 00:42:00,VALID,918.022,VALID,0,VALID,100,VALID,-0.135847,VALID,17.9683,VALID,115,VALID,0.740552,
2008-07-15, 00:43:00,VALID,918.029,VALID,0,VALID,100,VALID,-0.135847,VALID,17.9583,VALID,99,VALID,0.878348,
2008-07-15, 00:44:00,VALID,918.034,VALID,0,VALID,100,VALID,-0.0849042,VALID,17.9384,VALID,87,VALID,0.821429,
2008-07-15, 00:45:00,VALID,918.032,VALID,0,VALID,100,VALID,-0.118866,VALID,17.919,VALID,78,VALID,0.935683,
2008-07-15, 00:46:00,VALID,918.025,VALID,0,VALID,100,VALID,-0.118866,VALID,17.9062,VALID,83,VALID,0.741997,
2008-07-15, 00:47:00,VALID,918.037,VALID,0,VALID,100,VALID,-0.101885,VALID,17.9064,VALID,93,VALID,0.288885,
2008-07-15, 00:48:00,VALID,918.018,VALID,0,VALID,100,VALID,-0.101885,VALID,17.9101,VALID,93,VALID,0.050327,
2008-07-15, 00:49:00,VALID,918.013,VALID,0,VALID,100,VALID,-0.118866,VALID,17.9067,VALID,111,VALID,0.657885,
2008-07-15, 00:50:00,VALID,918.003,VALID,0,VALID,100,VALID,-0.169808,VALID,17.9069,VALID,108,VALID,0.632994,
2008-07-15, 00:51:00,VALID,917.997,VALID,0,VALID,100,VALID,-0.101885,VALID,17.893,VALID,108,VALID,0.199128,
2008-07-15, 00:52:00,VALID,917.974,VALID,0,VALID,100,VALID,-0.135847,VALID,17.9092,VALID,121,VALID,0.644985,
2008-07-15, 00:53:00,VALID,917.963,VALID,0,VALID,100,VALID,-0.118866,VALID,17.922,VALID,122,VALID,0.640451,
2008-07-15, 00:54:00,VALID,917.941,VALID,0,VALID,100,VALID,-0.135847,VALID,17.9423,VALID,120,VALID,0.834604,
2008-07-15, 00:55:00,VALID,917.94,VALID,0,VALID,100,VALID,-0.135847,VALID,17.9653,VALID,120,VALID,0.813058,
2008-07-15, 00:56:00,VALID,917.945,VALID,0,VALID,100,VALID,-0.0169808,VALID,17.9635,VALID,126,VALID,0.907812,
2008-07-15, 00:57:00,VALID,917.946,VALID,0,VALID,100,VALID,0,VALID,17.9762,VALID,123,VALID,0.945676,
2008-07-15, 00:58:00,VALID,917.948,VALID,0,VALID,100,VALID,-0.0169808,VALID,17.9892,VALID,121,VALID,0.857922,
2008-07-15, 00:59:00,VALID,917.929,VALID,0,VALID,100,VALID,-0.0169808,VALID,17.9859,VALID,124,VALID,0.936357,
2008-07-15, 01:00:00,VALID,917.909,VALID,0,VALID,100,VALID,-0.0509425,VALID,17.9959,VALID,127,VALID,0.554688,
2008-07-15, 01:01:00,VALID,917.867,VALID,0,VALID,100,VALID,0,VALID,18.0024,VALID,127,VALID,0.637091,
2008-07-15, 01:02:00,VALID,917.835,VALID,0,VALID,100,VALID,-0.0339617,VALID,18.0123,VALID,125,VALID,0.535511,
2008-07-15, 01:03:00,VALID,917.809,VALID,0,VALID,100,VALID,-0.0339617,VALID,18.0218,VALID,126,VALID,0.17133,
2008-07-15, 01:04:00,VALID,917.786,VALID,0,VALID,100,VALID,-0.0169808,VALID,18.0316,VALID,126,VALID,0,
2008-07-15, 01:05:00,VALID,917.776,VALID,0,VALID,100,VALID,-0.0509425,VALID,18.038,VALID,126,VALID,0,
2008-07-15, 01:06:00,VALID,917.772,VALID,0,VALID,100,VALID,-0.0339617,VALID,18.0448,VALID,126,VALID,0,
2008-07-15, 01:07:00,VALID,917.768,VALID,0,VALID,100,VALID,-0.0509425,VALID,18.0413,VALID,126,VALID,0,
2008-07-15, 01:08:00,VALID,917.763,VALID,0,VALID,100,VALID,-0.0339617,VALID,18.0346,VALID,126,VALID,0,
2008-07-15, 01:09:00,VALID,917.739,VALID,0,VALID,100,VALID,0,VALID,18.0577,VALID,126,VALID,0,
2008-07-15, 01:10:00,VALID,917.749,VALID,0,VALID,100,VALID,0,VALID,18.0475,VALID,126,VALID,0,
2008-07-15, 01:11:00,VALID,917.701,VALID,0,VALID,100,VALID,-0.101885,VALID,18.0522,VALID,126,VALID,0,
2008-07-15, 01:12:00,VALID,917.672,VALID,0,VALID,100,VALID,-0.101885,VALID,18.0424,VALID,126,VALID,0,
2008-07-15, 01:13:00,VALID,917.649,VALID,0,VALID,100,VALID,-0.0849042,VALID,18.0619,VALID,126,VALID,0,
2008-07-15, 01:14:00,VALID,917.632,VALID,0,VALID,100,VALID,-0.169808,VALID,18.082,VALID,126,VALID,0,
2008-07-15, 01:15:00,VALID,917.607,VALID,0,VALID,100,VALID,-0.135847,VALID,18.085,VALID,126,VALID,0,
2008-07-15, 01:16:00,VALID,917.597,VALID,0,VALID,100,VALID,-0.118866,VALID,18.0823,VALID,126,VALID,0,
2008-07-15, 01:17:00,VALID,917.581,VALID,0,VALID,100,VALID,-0.118866,VALID,18.0749,VALID,126,VALID,0,
2008-07-15, 01:18:00,VALID,917.566,VALID,0,VALID,100,VALID,-0.118866,VALID,18.0751,VALID,126,VALID,0,
2008-07-15, 01:19:00,VALID,917.557,VALID,0,VALID,100,VALID,-0.101885,VALID,18.0647,VALID,126,VALID,0,
2008-07-15, 01:20:00,VALID,917.53,VALID,0,VALID,100,VALID,-0.135847,VALID,18.0783,VALID,126,VALID,0,
2008-07-15, 01:21:00,VALID,917.522,VALID,0,VALID,100,VALID,-0.118866,VALID,18.0783,VALID,126,VALID,0,
2008-07-15, 01:22:00,VALID,917.506,VALID,0,VALID,100,VALID,-0.101885,VALID,18.0781,VALID,126,VALID,0,
2008-07-15, 01:23:00,VALID,917.493,VALID,0,VALID,100,VALID,-0.118866,VALID,18.0718,VALID,126,VALID,0,
2008-07-15, 01:24:00,VALID,917.477,VALID,0,VALID,100,VALID,-0.101885,VALID,18.0559,VALID,132,VALID,0,
2008-07-15, 01:25:00,VALID,917.445,VALID,0,VALID,100,VALID,-0.152827,VALID,18.0262,VALID,132,VALID,0,
2008-07-15, 01:26:00,VALID,917.439,VALID,0,VALID,100,VALID,-0.152827,VALID,18.0172,VALID,137,VALID,0.362995,
2008-07-15, 01:27:00,VALID,917.434,VALID,0,VALID,100,VALID,-0.118866,VALID,18.004,VALID,138,VALID,0.465402,
2008-07-15, 01:28:00,VALID,917.433,VALID,0,VALID,100,VALID,-0.135847,VALID,17.9873,VALID,138,VALID,0.0186435,
2008-07-15, 01:29:00,VALID,917.416,VALID,0,VALID,100,VALID,-0.118866,VALID,17.9912,VALID,138,VALID,0,
2008-07-15, 01:30:00,VALID,917.382,VALID,0,VALID,100,VALID,-0.135847,VALID,17.9847,VALID,138,VALID,0,
2008-07-15, 01:31:00,VALID,917.376,VALID,0,VALID,100,VALID,-0.101885,VALID,17.9845,VALID,138,VALID,0,
2008-07-15, 01:32:00,VALID,917.343,VALID,0,VALID,100,VALID,-0.152827,VALID,17.9646,VALID,139,VALID,0,
2008-07-15, 01:33:00,VALID,917.346,VALID,0,VALID,100,VALID,-0.118866,VALID,17.9782,VALID,139,VALID,0,
2008-07-15, 01:34:00,VALID,917.341,VALID,0,VALID,100,VALID,-0.0849042,VALID,17.9845,VALID,140,VALID,0,
2008-07-15, 01:35:00,VALID,917.338,VALID,0,VALID,100,VALID,-0.101885,VALID,17.9845,VALID,140,VALID,0.120236,
2008-07-15, 01:36:00,VALID,917.34,VALID,0,VALID,100,VALID,-0.152827,VALID,17.991,VALID,134,VALID,0.203307,
2008-07-15, 01:37:00,VALID,917.324,VALID,0,VALID,100,VALID,-0.135847,VALID,17.9813,VALID,112,VALID,0.628729,
2008-07-15, 01:38:00,VALID,917.327,VALID,0,VALID,100,VALID,-0.118866,VALID,17.9877,VALID,117,VALID,0.992535,
2008-07-15, 01:39:00,VALID,917.329,VALID,0,VALID,100,VALID,-0.101885,VALID,17.978,VALID,112,VALID,1.06486,
2008-07-15, 01:40:00,VALID,917.314,VALID,0,VALID,100,VALID,-0.118866,VALID,17.9681,VALID,116,VALID,1.07866,
2008-07-15, 01:41:00,VALID,917.293,VALID,0,VALID,100,VALID,-0.152827,VALID,17.965,VALID,102,VALID,1.56858,
2008-07-15, 01:42:00,VALID,917.28,VALID,0,VALID,100,VALID,-0.135847,VALID,17.9454,VALID,106,VALID,1.45259,
2008-07-15, 01:43:00,VALID,917.268,VALID,0,VALID,100,VALID,-0.118866,VALID,17.9521,VALID,115,VALID,1.10828,
2008-07-15, 01:44:00,VALID,917.253,VALID,0,VALID,100,VALID,-0.118866,VALID,17.962,VALID,112,VALID,1.08631,
2008-07-15, 01:45:00,VALID,917.232,VALID,0,VALID,100,VALID,-0.152827,VALID,17.9586,VALID,81,VALID,0.728198,
2008-07-15, 01:46:00,VALID,917.227,VALID,0,VALID,100,VALID,-0.135847,VALID,17.9553,VALID,111,VALID,1.08121,
2008-07-15, 01:47:00,VALID,917.2,VALID,0,VALID,100,VALID,-0.118866,VALID,17.9488,VALID,117,VALID,0.912919,
2008-07-15, 01:48:00,VALID,917.201,VALID,0,VALID,100,VALID,-0.118866,VALID,17.9491,VALID,122,VALID,1.14792,
2008-07-15, 01:49:00,VALID,917.2,VALID,0,VALID,100,VALID,-0.118866,VALID,17.9393,VALID,116,VALID,0.765807,
2008-07-15, 01:50:00,VALID,917.194,VALID,0,VALID,100,VALID,-0.169808,VALID,17.9521,VALID,128,VALID,1.0696,
2008-07-15, 01:51:00,VALID,917.204,VALID,0,VALID,100,VALID,-0.186789,VALID,17.9555,VALID,137,VALID,1.13935,
2008-07-15, 01:52:00,VALID,917.208,VALID,0,VALID,100,VALID,-0.118866,VALID,17.9618,VALID,141,VALID,1.12555,
2008-07-15, 01:53:00,VALID,917.21,VALID,0,VALID,100,VALID,-0.101885,VALID,17.9518,VALID,147,VALID,1.27969,
2008-07-15, 01:54:00,VALID,917.206,VALID,0,VALID,100,VALID,-0.101885,VALID,17.9546,VALID,146,VALID,1.06771,
2008-07-15, 01:55:00,VALID,917.211,VALID,0,VALID,100,VALID,-0.118866,VALID,17.9678,VALID,141,VALID,1.01953,
2008-07-15, 01:56:00,VALID,917.192,VALID,0,VALID,100,VALID,-0.135847,VALID,17.981,VALID,141,VALID,1.05399,
2008-07-15, 01:57:00,VALID,917.212,VALID,0,VALID,100,VALID,-0.135847,VALID,17.9806,VALID,149,VALID,1.23847,
2008-07-15, 01:58:00,VALID,917.193,VALID,0,VALID,100,VALID,-0.118866,VALID,18.0037,VALID,139,VALID,1.0173,
2008-07-15, 01:59:00,VALID,917.173,VALID,0,VALID,100,VALID,-0.101885,VALID,18.0299,VALID,131,VALID,0.953683,
2008-07-15, 02:00:00,VALID,917.161,VALID,0,VALID,100,VALID,-0.101885,VALID,18.0487,VALID,131,VALID,0.934524,
2008-07-15, 02:01:00,VALID,917.132,VALID,0,VALID,100,VALID,-0.118866,VALID,18.0714,VALID,133,VALID,0.95625,
2008-07-15, 02:02:00,VALID,917.103,VALID,0,VALID,100,VALID,-0.152827,VALID,18.1043,VALID,147,VALID,1.05382,
2008-07-15, 02:03:00,VALID,917.094,VALID,0,VALID,100,VALID,-0.118866,VALID,18.1274,VALID,154,VALID,1.11582,
2008-07-15, 02:04:00,VALID,917.078,VALID,0,VALID,100,VALID,-0.118866,VALID,18.1399,VALID,136,VALID,1.0856,
2008-07-15, 02:05:00,VALID,917.048,VALID,0,VALID,100,VALID,-0.0849042,VALID,18.1365,VALID,145,VALID,0.875,
2008-07-15, 02:06:00,VALID,917.047,VALID,0,VALID,100,VALID,-0.152827,VALID,18.143,VALID,148,VALID,1.04688,
2008-07-15, 02:07:00,VALID,917.048,VALID,0,VALID,100,VALID,-0.101885,VALID,18.1399,VALID,154,VALID,0.916726,
2008-07-15, 02:08:00,VALID,917.051,VALID,0,VALID,100,VALID,-0.118866,VALID,18.133,VALID,140,VALID,1.05654,
2008-07-15, 02:09:00,VALID,917.046,VALID,0,VALID,100,VALID,-0.101885,VALID,18.1335,VALID,141,VALID,1.07922,
2008-07-15, 02:10:00,VALID,917.048,VALID,0,VALID,100,VALID,-0.118866,VALID,18.117,VALID,131,VALID,0.808854,
2008-07-15, 02:11:00,VALID,917.032,VALID,0,VALID,100,VALID,-0.101885,VALID,18.1172,VALID,139,VALID,1.02939,
2008-07-15, 02:12:00,VALID,917.009,VALID,0,VALID,100,VALID,-0.0849042,VALID,18.1071,VALID,144,VALID,0.837054,
2008-07-15, 02:13:00,VALID,917.007,VALID,0,VALID,100,VALID,-0.118866,VALID,18.1145,VALID,141,VALID,1.00133,
2008-07-15, 02:14:00,VALID,916.983,VALID,0,VALID,100,VALID,-0.101885,VALID,18.0943,VALID,154,VALID,1.16444,
2008-07-15, 02:15:00,VALID,916.962,VALID,0,VALID,100,VALID,-0.101885,VALID,18.0883,VALID,150,VALID,1.23299,
2008-07-15, 02:16:00,VALID,916.923,VALID,0,VALID,100,VALID,-0.118866,VALID,18.0783,VALID,138,VALID,0.97526,
2008-07-15, 02:17:00,VALID,916.911,VALID,0,VALID,100,VALID,-0.118866,VALID,18.0885,VALID,150,VALID,1.10326,
2008-07-15, 02:18:00,VALID,916.881,VALID,0,VALID,100,VALID,-0.135847,VALID,18.0776,VALID,133,VALID,0.760045,
2008-07-15, 02:19:00,VALID,916.858,VALID,0,VALID,100,VALID,-0.118866,VALID,18.0779,VALID,147,VALID,1.10451,
2008-07-15, 02:20:00,VALID,916.83,VALID,0,VALID,100,VALID,-0.101885,VALID,18.0786,VALID,144,VALID,0.876488,
2008-07-15, 02:21:00,VALID,916.786,VALID,0,VALID,100,VALID,-0.152827,VALID,18.0751,VALID,135,VALID,1.07688,
2008-07-15, 02:22:00,VALID,916.77,VALID,0,VALID,100,VALID,-0.118866,VALID,18.0781,VALID,146,VALID,1.15885,
2008-07-15, 02:23:00,VALID,916.746,VALID,0,VALID,100,VALID,-0.101885,VALID,18.0786,VALID,145,VALID,1.00073,
2008-07-15, 02:24:00,VALID,916.734,VALID,0,VALID,100,VALID,-0.0849042,VALID,18.0776,VALID,150,VALID,0.611281,
2008-07-15, 02:25:00,VALID,916.732,VALID,0,VALID,100,VALID,-0.101885,VALID,18.0712,VALID,128,VALID,1.20676,
2008-07-15, 02:26:00,VALID,916.737,VALID,0,VALID,100,VALID,-0.0679233,VALID,18.0772,VALID,127,VALID,1.61756,
2008-07-15, 02:27:00,VALID,916.746,VALID,0,VALID,100,VALID,-0.0679233,VALID,18.0871,VALID,132,VALID,1.37682,
2008-07-15, 02:28:00,VALID,916.749,VALID,0,VALID,100,VALID,-0.0169808,VALID,18.0966,VALID,131,VALID,1.28806,
2008-07-15, 02:29:00,VALID,916.753,VALID,0,VALID,100,VALID,-0.0339617,VALID,18.1096,VALID,126,VALID,1.32031,
2008-07-15, 02:30:00,VALID,916.747,VALID,0,VALID,100,VALID,-0.0509425,VALID,18.1193,VALID,122,VALID,1.21633,
2008-07-15, 02:31:00,VALID,916.734,VALID,0,VALID,100,VALID,-0.0339617,VALID,18.1261,VALID,110,VALID,1.30451,
2008-07-15, 02:32:00,VALID,916.738,VALID,0,VALID,100,VALID,-0.0849042,VALID,18.1193,VALID,109,VALID,1.0347,
2008-07-15, 02:33:00,VALID,916.716,VALID,0,VALID,100,VALID,-0.0169808,VALID,18.1193,VALID,98,VALID,0.525476,
2008-07-15, 02:34:00,VALID,916.705,VALID,0,VALID,100,VALID,-0.0849042,VALID,18.1126,VALID,99,VALID,0.76456,
2008-07-15, 02:35:00,VALID,916.699,VALID,0,VALID,100,VALID,-0.0679233,VALID,18.1066,VALID,111,VALID,0.675509,
2008-07-15, 02:36:00,VALID,916.69,VALID,0,VALID,100,VALID,-0.0509425,VALID,18.0899,VALID,112,VALID,0.815799,
2008-07-15, 02:37:00,VALID,916.671,VALID,0,VALID,100,VALID,-0.101885,VALID,18.0869,VALID,112,VALID,0.434443,
2008-07-15, 02:38:00,VALID,916.66,VALID,0,VALID,100,VALID,-0.0509425,VALID,18.0772,VALID,114,VALID,0.568555,
2008-07-15, 02:39:00,VALID,916.647,VALID,0,VALID,100,VALID,-0.0679233,VALID,18.0809,VALID,113,VALID,0.62128,
2008-07-15, 02:40:00,VALID,916.636,VALID,0,VALID,100,VALID,-0.0339617,VALID,18.0707,VALID,104,VALID,0.480291,
2008-07-15, 02:41:00,VALID,916.637,VALID,0,VALID,100,VALID,-0.152827,VALID,18.0649,VALID,127,VALID,0.692406,
2008-07-15, 02:42:00,VALID,916.606,VALID,0,VALID,100,VALID,-0.152827,VALID,18.0721,VALID,129,VALID,0.598845,
2008-07-15, 02:43:00,VALID,916.609,VALID,0,VALID,100,VALID,-0.152827,VALID,18.0723,VALID,123,VALID,0.372396,
2008-07-15, 02:44:00,VALID,916.608,VALID,0,VALID,100,VALID,-0.186789,VALID,18.0658,VALID,112,VALID,0.353161,
2008-07-15, 02:45:00,VALID,916.607,VALID,0,VALID,100,VALID,-0.186789,VALID,18.0658,VALID,103,VALID,0,
2008-07-15, 02:46:00,VALID,916.597,VALID,0,VALID,100,VALID,-0.169808,VALID,18.0723,VALID,118,VALID,0,
2008-07-15, 02:47:00,VALID,916.58,VALID,0,VALID,100,VALID,-0.169808,VALID,18.0593,VALID,122,VALID,0.0421113,
2008-07-15, 02:48:00,VALID,916.562,VALID,0,VALID,100,VALID,-0.169808,VALID,18.0623,VALID,119,VALID,0.789225,
2008-07-15, 02:49:00,VALID,916.54,VALID,0,VALID,100,VALID,-0.135847,VALID,18.0561,VALID,112,VALID,0.832386,
2008-07-15, 02:50:00,VALID,916.524,VALID,0,VALID,100,VALID,-0.135847,VALID,18.0623,VALID,115,VALID,0.831845,
2008-07-15, 02:51:00,VALID,916.497,VALID,0,VALID,100,VALID,-0.169808,VALID,18.0626,VALID,94,VALID,0.830915,
2008-07-15, 02:52:00,VALID,916.5,VALID,0,VALID,100,VALID,-0.186789,VALID,18.0656,VALID,99,VALID,0.659157,
2008-07-15, 02:53:00,VALID,916.47,VALID,0,VALID,100,VALID,-0.152827,VALID,18.0656,VALID,88,VALID,0.630035,
2008-07-15, 02:54:00,VALID,916.46,VALID,0,VALID,100,VALID,-0.169808,VALID,18.0591,VALID,123,VALID,1.08899,
2008-07-15, 02:55:00,VALID,916.435,VALID,0,VALID,100,VALID,-0.135847,VALID,18.0528,VALID,132,VALID,0.740799,
2008-07-15, 02:56:00,VALID,916.41,VALID,0,VALID,100,VALID,-0.101885,VALID,18.058,VALID,144,VALID,0.941501,
2008-07-15, 02:57:00,VALID,916.393,VALID,0,VALID,100,VALID,-0.0339617,VALID,18.061,VALID,137,VALID,1.22301,
2008-07-15, 02:58:00,VALID,916.377,VALID,0,VALID,100,VALID,-0.0339617,VALID,18.0675,VALID,133,VALID,1.012,
2008-07-15, 02:59:00,VALID,916.369,VALID,0,VALID,100,VALID,-0.0509425,VALID,18.0605,VALID,144,VALID,0.74929,
2008-07-15, 03:00:00,VALID,916.359,VALID,0,VALID,100,VALID,-0.0509425,VALID,18.0939,VALID,150,VALID,1.1503,
2008-07-15, 03:01:00,VALID,916.362,VALID,0,VALID,100,VALID,-0.0849042,VALID,18.0969,VALID,139,VALID,1.12138,
2008-07-15, 03:02:00,VALID,916.357,VALID,0,VALID,100,VALID,-0.0849042,VALID,18.1066,VALID,132,VALID,1.10847,
2008-07-15, 03:03:00,VALID,916.364,VALID,0,VALID,100,VALID,-0.0849042,VALID,18.1198,VALID,132,VALID,1.05129,
2008-07-15, 03:04:00,VALID,916.364,VALID,0,VALID,100,VALID,-0.101885,VALID,18.1198,VALID,135,VALID,1.16951,
2008-07-15, 03:05:00,VALID,916.358,VALID,0,VALID,100,VALID,-0.118866,VALID,18.1166,VALID,137,VALID,0.980469,
2008-07-15, 03:06:00,VALID,916.362,VALID,0,VALID,100,VALID,-0.0849042,VALID,18.1198,VALID,133,VALID,1.08825,
2008-07-15, 03:07:00,VALID,916.359,VALID,0,VALID,100,VALID,-0.0679233,VALID,18.1161,VALID,135,VALID,1.00425,
2008-07-15, 03:08:00,VALID,916.372,VALID,0,VALID,100,VALID,-0.0849042,VALID,18.1224,VALID,132,VALID,0.914757,
2008-07-15, 03:09:00,VALID,916.373,VALID,0,VALID,100,VALID,-0.0679233,VALID,18.123,VALID,140,VALID,0.400981,
2008-07-15, 03:10:00,VALID,916.387,VALID,0,VALID,100,VALID,-0.0849042,VALID,18.1258,VALID,135,VALID,0.758358,
2008-07-15, 03:11:00,VALID,916.385,VALID,0,VALID,100,VALID,-0.0679233,VALID,18.1293,VALID,111,VALID,0.895597,
2008-07-15, 03:12:00,VALID,916.381,VALID,0,VALID,100,VALID,-0.0849042,VALID,18.1295,VALID,108,VALID,0.625347,
2008-07-15, 03:13:00,VALID,916.38,VALID,0,VALID,100,VALID,-0.118866,VALID,18.1295,VALID,107,VALID,0.491678,
2008-07-15, 03:14:00,VALID,916.374,VALID,0,VALID,100,VALID,-0.101885,VALID,18.1323,VALID,107,VALID,0.531822,
2008-07-15, 03:15:00,VALID,916.367,VALID,0,VALID,100,VALID,-0.0509425,VALID,18.1358,VALID,119,VALID,0.748094,
2008-07-15, 03:16:00,VALID,916.377,VALID,0,VALID,100,VALID,-0.0849042,VALID,18.1288,VALID,120,VALID,0.464935,
2008-07-15, 03:17:00,VALID,916.373,VALID,0,VALID,100,VALID,-0.0849042,VALID,18.1358,VALID,114,VALID,0.362351,
2008-07-15, 03:18:00,VALID,916.399,VALID,0,VALID,100,VALID,-0.0849042,VALID,18.1425,VALID,112,VALID,0.0915698,
2008-07-15, 03:19:00,VALID,916.399,VALID,0,VALID,100,VALID,-0.0679233,VALID,18.1423,VALID,119,VALID,0,
2008-07-15, 03:20:00,VALID,916.4,VALID,0,VALID,100,VALID,-0.101885,VALID,18.1358,VALID,123,VALID,0.109375,
2008-07-15, 03:21:00,VALID,916.399,VALID,0,VALID,100,VALID,-0.0509425,VALID,18.1356,VALID,122,VALID,0,
2008-07-15, 03:22:00,VALID,916.388,VALID,0,VALID,100,VALID,-0.0849042,VALID,18.1358,VALID,122,VALID,0,
2008-07-15, 03:23:00,VALID,916.365,VALID,0,VALID,100,VALID,-0.101885,VALID,18.1261,VALID,122,VALID,0,
2008-07-15, 03:24:00,VALID,916.36,VALID,0,VALID,100,VALID,-0.0509425,VALID,18.1226,VALID,122,VALID,0,
2008-07-15, 03:25:00,VALID,916.335,VALID,0,VALID,100,VALID,-0.0679233,VALID,18.1196,VALID,122,VALID,0,
2008-07-15, 03:26:00,VALID,916.313,VALID,0,VALID,100,VALID,-0.118866,VALID,18.1205,VALID,122,VALID,0,
2008-07-15, 03:27:00,VALID,916.302,VALID,0,VALID,100,VALID,-0.101885,VALID,18.1138,VALID,122,VALID,0,
2008-07-15, 03:28:00,VALID,916.291,VALID,0,VALID,100,VALID,-0.152827,VALID,18.1075,VALID,122,VALID,0.476215,
2008-07-15, 03:29:00,VALID,916.286,VALID,0,VALID,100,VALID,-0.135847,VALID,18.1175,VALID,126,VALID,0.983854,
2008-07-15, 03:30:00,VALID,916.285,VALID,0,VALID,100,VALID,-0.152827,VALID,18.124,VALID,140,VALID,0.878196,
2008-07-15, 03:31:00,VALID,916.276,VALID,0,VALID,100,VALID,-0.169808,VALID,18.1207,VALID,136,VALID,0.736579,
2008-07-15, 03:32:00,VALID,916.262,VALID,0,VALID,100,VALID,-0.152827,VALID,18.1339,VALID,138,VALID,0.914063,
2008-07-15, 03:33:00,VALID,916.253,VALID,0,VALID,100,VALID,-0.118866,VALID,18.124,VALID,134,VALID,0.55878,
2008-07-15, 03:34:00,VALID,916.241,VALID,0,VALID,100,VALID,-0.135847,VALID,18.1341,VALID,133,VALID,1.07138,
2008-07-15, 03:35:00,VALID,916.223,VALID,0,VALID,100,VALID,-0.152827,VALID,18.1504,VALID,128,VALID,1.05578,
2008-07-15, 03:36:00,VALID,916.212,VALID,0,VALID,100,VALID,-0.152827,VALID,18.1631,VALID,132,VALID,0.939276,
2008-07-15, 03:37:00,VALID,916.204,VALID,0,VALID,100,VALID,-0.135847,VALID,18.1696,VALID,125,VALID,1.18659,
2008-07-15, 03:38:00,VALID,916.215,VALID,0,VALID,100,VALID,-0.135847,VALID,18.1858,VALID,114,VALID,0.919695,
2008-07-15, 03:39:00,VALID,916.227,VALID,0,VALID,100,VALID,-0.169808,VALID,18.1858,VALID,113,VALID,0.984933,